Weather History for Hollywood, FL

Change the Weather History Date:

Wednesday, January 23, 2013

  Actual Average (KFLL) Record (KFLL)
Temperature  
Mean Temperature 68 °F 69 °F  
Max Temperature 73 °F 77 °F 88 °F (1926)
Min Temperature 60 °F 62 °F 33 °F (1960)
Degree Days  
Heating Degree Days 0 1  
Month to date heating degree days 39  
Since 1 July heating degree days 71  
Cooling Degree Days 2 5  
Month to date cooling degree days 124  
Year to date cooling degree days 124  
Growing Degree Days 18 (Base 50)    
Moisture  
Dew Point 52 °F    
Average Humidity 58    
Maximum Humidity 80    
Minimum Humidity 43    
Precipitation  
Precipitation 0.00 in 0.17 in 2.95 in (1926)
Month to date precipitation 2.23  
Year to date precipitation 2.23  
Snow  
Snow 0.00 in - - ()
Month to date snowfall  
Since 1 July snowfall  
Snow Depth -    
Sea Level Pressure  
Sea Level Pressure 30.27 in    
Wind  
Wind Speed 9 mph (NNE)    
Max Wind Speed 15 mph    
Max Gust Speed 22 mph    
Visibility 10 miles    
Events      
T = Trace of Precipitation, MM = Missing Value Source: NWS Daily Summary

Daily Weather History Graph

Daily Weather History Graph

Search for Another Location

Airport:

Trip Planner

Search our weather history database for the weather conditions in past years. The results will help you decide how hot, cold, wet, or windy it might be!

Date:

Astronomy

Jan. 23, 2013 Rise Set
Actual Time 7:08 AM EST 5:57 PM EST
Civil Twilight 6:43 AM EST 6:22 PM EST
Nautical Twilight 6:15 AM EST 6:50 PM EST
Astronomical Twilight 5:48 AM EST 7:17 PM EST
Moon 3:11 PM EST (1/23) 4:14 AM EST (1/23)
Length of Visible Light 11h 38m
Length of Day
10h 49m
Waxing Gibbous, 89% of the Moon is Illuminated
Jan 23
Waxing Gibbous
Jan 26
Full
Feb 3
Last Quarter
Feb 10
New
Feb 17
First Quarter

Hourly Weather History & Observations

Time (EST) Temp. Dew Point Humidity Pressure Visibility Wind Dir Wind Speed Gust Speed Precip Events Conditions
12:53 AM 62.1 °F 55.0 °F 78% 30.22 in 10.0 mi North 5.8 mph - N/A   Clear
1:53 AM 68.0 °F 52.0 °F 56% 30.22 in 10.0 mi NNE 11.5 mph - N/A   Clear
2:53 AM 68.0 °F 51.1 °F 55% 30.23 in 10.0 mi ENE 11.5 mph - N/A   Clear
3:53 AM 66.9 °F 50.0 °F 54% 30.22 in 10.0 mi NE 11.5 mph - N/A   Clear
4:53 AM 66.9 °F 51.1 °F 57% 30.22 in 10.0 mi NE 8.1 mph - N/A   Clear
5:53 AM 66.9 °F 51.1 °F 57% 30.24 in 10.0 mi NE 9.2 mph - N/A   Clear
6:53 AM 66.9 °F 51.1 °F 57% 30.25 in 10.0 mi NE 6.9 mph - N/A   Clear
7:53 AM 64.0 °F 55.0 °F 73% 30.27 in 10.0 mi NNW 6.9 mph - N/A   Clear
8:53 AM 64.9 °F 55.0 °F 70% 30.30 in 10.0 mi North 8.1 mph - N/A   Clear
9:53 AM 69.1 °F 54.0 °F 58% 30.31 in 10.0 mi North 9.2 mph - N/A   Clear
10:53 AM 70.0 °F 54.0 °F 57% 30.32 in 10.0 mi North 8.1 mph - N/A   Partly Cloudy
11:53 AM 73.9 °F 54.0 °F 50% 30.29 in 10.0 mi NE 15.0 mph 20.7 mph N/A   Scattered Clouds
12:53 PM 73.9 °F 50.0 °F 43% 30.27 in 10.0 mi ENE 13.8 mph 20.7 mph N/A   Clear
1:53 PM 73.9 °F 51.1 °F 45% 30.25 in 10.0 mi East 13.8 mph 21.9 mph N/A   Partly Cloudy
2:53 PM 73.0 °F 51.1 °F 46% 30.25 in 10.0 mi NE 12.7 mph 21.9 mph N/A   Mostly Cloudy
3:53 PM 73.9 °F 51.1 °F 45% 30.26 in 10.0 mi ENE 11.5 mph - N/A   Scattered Clouds
4:53 PM 72.0 °F 48.9 °F 44% 30.26 in 10.0 mi ENE 12.7 mph - N/A   Partly Cloudy
5:53 PM 69.1 °F 51.1 °F 53% 30.27 in 10.0 mi ENE 10.4 mph - N/A   Clear
6:53 PM 66.9 °F 50.0 °F 54% 30.27 in 10.0 mi NE 4.6 mph - N/A   Clear
7:53 PM 66.0 °F 51.1 °F 59% 30.28 in 10.0 mi NE 3.5 mph - N/A   Clear
8:53 PM 64.9 °F 50.0 °F 58% 30.30 in 10.0 mi NE 3.5 mph - N/A   Clear
9:53 PM 63.0 °F 53.1 °F 70% 30.30 in 10.0 mi North 8.1 mph - N/A   Partly Cloudy
10:53 PM 62.1 °F 55.0 °F 78% 30.30 in 10.0 mi North 5.8 mph - N/A   Clear
11:53 PM 60.1 °F 54.0 °F 80% 30.28 in 10.0 mi North 6.9 mph - N/A   Clear